Wind_Speed
18 17 17 19 19 19 19 20 20 19 19 20 21 21 20 19 19 18 16 15 14 13 13 13 13 13 13 13 14 15 15 16 15 15 14 14 14 14 14 13 13 13 12 13
19 18 18 19 19 20 21 22 21 21 20 21 21 20 20 19 19 18 17 16 16 16 16 15 15 15 15 14 14 15 15 15 15 15 14 14 14 14 13 13 14 14 13 13
21 19 20 19 18 20 21 21 20 20 21 21 21 20 20 20 20 19 18 18 18 17 17 16 16 15 15 15 15 15 15 14 15 14 14 14 14 14 14 14 14 13 13 13
23 21 21 20 20 21 21 21 21 22 21 21 22 21 21 22 22 22 21 20 19 19 19 18 17 17 16 15 15 16 15 15 15 14 14 15 14 13 14 14 13 13 14 14
24 23 23 23 22 22 22 22 22 22 21 21 22 22 22 23 23 22 21 21 20 19 19 18 17 17 17 16 16 17 16 16 15 16 16 16 14 13 13 14 14 14 14 14
25 25 25 25 24 23 23 25 24 24 24 23 23 23 23 23 23 22 22 21 20 19 18 18 17 17 17 17 17 17 17 17 17 17 16 15 14 14 15 15 14 14 13 13
28 28 28 26 26 25 25 27 26 25 25 24 24 24 24 23 23 22 21 21 20 20 19 18 18 18 18 18 18 18 17 16 17 17 17 16 15 15 15 15 14 14 14 14
30 30 30 27 25 26 28 28 28 27 27 26 25 25 24 23 23 22 21 21 20 20 19 19 19 19 19 18 18 19 18 18 17 17 17 16 16 16 16 16 16 15 15 15
32 32 30 29 29 28 29 29 28 28 27 26 26 25 24 24 23 23 22 22 21 21 20 20 20 20 20 20 19 19 18 18 17 17 17 17 17 17 17 17 17 17 16 16
32 32 31 29 29 30 30 29 27 27 28 28 27 26 25 25 24 23 23 23 23 22 22 21 21 22 22 21 21 20 18 18 18 18 18 18 18 18 19 19 18 18 17 16
32 33 33 32 31 31 31 31 31 29 28 28 27 27 27 26 25 25 24 23 23 24 24 23 22 22 22 22 21 21 20 20 19 19 19 19 19 18 18 18 18 17 17 17
31 31 32 32 32 31 31 31 31 30 29 28 28 28 27 27 26 25 24 24 24 24 24 23 23 22 22 22 21 21 21 21 21 21 21 20 20 19 19 19 18 17 17 17
31 31 31 31 31 30 30 30 29 30 30 28 28 27 27 26 26 26 25 25 25 24 23 23 23 23 23 22 22 21 21 21 21 22 22 21 20 20 20 21 20 19 19 19
31 31 31 31 31 31 31 30 29 29 29 29 27 26 26 26 27 27 26 26 26 26 24 24 24 24 23 23 23 22 22 22 22 22 22 22 21 21 21 21 21 21 21 21
31 31 31 31 31 30 30 30 29 28 28 28 28 27 26 27 26 26 26 26 26 25 25 24 24 24 24 23 23 22 22 22 22 23 23 22 22 22 21 21 21 21 21 22
30 30 29 29 29 29 29 29 28 28 27 28 28 27 26 25 25 25 25 25 25 25 24 24 24 24 24 23 23 23 24 24 23 23 23 22 22 22 22 22 22 23 23 23
29 28 27 27 27 27 27 27 26 26 27 27 27 26 26 26 25 24 25 25 25 25 25 24 24 24 24 24 24 24 24 24 24 23 23 23 23 22 22 22 23 23 22 22
27 27 26 26 26 26 26 26 25 25 24 24 25 25 25 26 26 25 25 24 24 24 24 24 25 25 25 25 25 25 25 24 24 24 24 24 24 24 24 24 23 23 23 23
24 24 25 25 25 25 25 25 25 25 24 23 24 24 24 25 25 24 24 24 24 24 24 24 24 24 25 25 25 25 26 25 24 23 23 24 24 24 24 24 24 23 23 23
23 23 24 24 24 24 23 23 24 24 24 24 24 25 25 25 25 25 25 25 25 25 24 24 24 24 24 24 24 24 25 24 24 23 23 24 24 24 24 24 23 23 23 24
22 23 23 23 23 23 23 23 23 24 24 24 24 24 25 25 25 25 24 25 25 24 24 24 24 24 23 23 23 23 23 24 24 24 24 24 24 24 24 24 24 24 24 25
21 22 22 23 23 23 22 22 23 24 24 24 24 24 24 24 24 23 23 24 24 24 23 23 23 24 24 23 23 23 23 24 24 24 24 24 24 24 24 24 24 24 24 24
21 21 22 22 22 21 21 21 22 22 23 23 24 23 23 23 23 23 24 24 24 23 22 22 23 23 24 24 23 23 23 24 24 24 25 25 25 24 25 25 25 24 25 25
19 19 19 21 21 21 21 21 21 22 22 22 23 23 23 23 23 23 23 22 23 23 23 22 23 22 22 23 24 24 24 23 24 24 24 24 25 25 25 25 25 26 26 26
19 19 19 20 21 21 21 21 21 22 22 22 22 22 22 22 22 22 22 23 23 23 23 23 23 22 22 23 23 23 23 24 24 25 25 26 26 25 25 26 26 26 26 27
19 20 20 21 21 21 21 21 21 21 20 21 22 22 22 22 22 22 22 22 22 22 22 22 22 23 23 23 23 23 24 24 23 24 25 25 26 26 26 26 25 26 26 26
19 20 20 20 20 20 20 20 21 21 21 20 20 21 21 21 22 22 22 22 21 21 21 22 21 21 22 22 23 23 23 23 24 24 24 25 25 25 25 26 26 26 26 26
Wind_Direction
273 274 276 277 277 276 274 277 280 280 280 280 281 281 280 282 283 281 282 280 276 271 270 271 273 275 277 276 277 279 279 277 276 276 278 281 283 287 286 288 288 286 283 284
272 274 273 275 274 277 279 280 280 279 277 280 283 281 279 280 282 282 278 276 273 272 270 271 274 275 274 274 275 276 277 275 273 274 275 278 279 284 284 283 285 286 286 284
270 271 272 271 273 277 279 278 276 275 275 276 277 275 275 278 279 279 277 274 272 272 272 271 273 273 271 272 273 274 275 274 274 273 275 276 276 278 281 280 280 282 286 286
272 270 271 272 274 276 277 278 275 273 272 273 274 273 275 277 277 277 276 275 276 274 272 271 272 271 271 271 271 272 274 274 271 272 274 273 274 278 281 279 279 283 286 287
271 269 268 269 269 271 271 273 273 273 271 271 275 277 275 276 276 276 275 275 274 274 273 271 270 270 271 271 271 271 270 272 272 272 273 274 273 277 282 284 282 284 284 282
267 268 266 267 270 271 271 270 270 271 272 273 275 274 275 276 277 278 276 275 272 270 268 270 270 271 272 273 272 271 270 269 271 272 273 272 273 276 281 282 283 283 280 278
266 267 266 266 268 270 270 271 272 273 273 275 272 271 271 274 275 275 276 275 272 268 267 266 266 268 273 275 275 276 274 272 272 271 270 268 270 275 278 281 282 279 277 277
265 264 263 265 267 267 268 270 272 272 273 274 273 271 271 272 272 271 272 272 271 269 268 267 267 269 271 275 276 279 277 274 272 270 268 266 269 272 274 277 279 278 278 280
263 263 264 265 264 263 265 267 268 270 272 272 272 271 271 269 268 267 267 268 268 267 267 266 267 269 269 271 273 276 276 275 272 269 268 269 269 270 272 276 276 278 280 281
262 262 263 265 264 263 264 266 266 268 270 269 268 268 268 267 267 267 264 264 266 266 265 265 266 268 269 269 270 272 271 270 270 271 271 273 272 271 271 273 274 278 277 278
262 262 262 262 262 263 265 265 267 267 266 267 266 266 266 266 265 264 264 263 265 265 264 264 266 268 267 268 269 269 269 267 267 270 272 273 273 273 274 276 276 275 274 275
260 262 261 260 260 262 263 263 264 264 263 264 266 265 265 264 263 262 262 263 264 265 264 264 266 266 267 266 265 266 268 267 266 268 269 270 271 272 274 276 275 273 275 276
259 260 261 262 263 263 263 263 264 264 264 263 264 265 265 263 262 262 262 262 262 263 263 264 264 264 265 265 266 266 267 267 267 267 268 269 270 271 272 273 272 273 273 274
259 260 260 262 263 264 263 262 263 263 262 262 263 264 264 263 262 262 262 263 262 262 262 263 263 265 265 265 267 267 267 267 267 266 267 268 270 271 273 273 272 272 272 273
259 261 262 263 264 265 264 263 262 263 264 262 261 262 262 264 263 262 262 264 264 263 261 262 263 264 264 264 265 264 264 265 265 265 267 269 271 271 272 273 273 273 272 272
257 259 260 261 263 263 261 260 261 263 263 262 259 259 260 262 263 263 262 263 265 264 262 262 262 262 263 263 264 263 262 262 263 265 267 268 270 270 272 273 273 273 273 272
258 257 258 260 261 261 260 259 259 260 260 260 258 255 256 259 262 263 262 261 262 262 261 261 260 261 262 262 263 264 263 263 264 265 268 269 270 271 272 272 272 272 272 272
258 257 260 262 262 260 259 259 259 259 261 259 257 256 257 259 261 263 262 263 264 263 261 260 261 261 260 260 262 263 263 262 263 265 267 270 271 271 270 270 270 269 269 270
259 257 257 258 260 260 259 258 258 258 258 259 258 258 259 260 261 262 264 266 267 265 264 262 261 261 262 262 263 263 263 263 264 265 266 269 270 270 269 268 268 268 268 269
256 257 258 258 258 258 259 259 258 257 257 259 258 259 259 260 259 261 263 265 266 266 267 265 262 262 263 264 264 265 263 261 262 264 267 268 269 268 267 268 268 270 271 271
256 256 257 257 257 258 258 258 259 259 259 260 260 261 261 260 260 261 262 264 266 268 268 266 264 264 265 267 267 265 264 262 262 264 265 267 268 267 266 267 269 270 272 272
259 258 257 257 257 258 258 260 261 261 262 262 261 261 261 262 262 262 263 265 266 267 267 266 265 265 265 267 266 264 264 264 264 264 265 265 265 263 264 266 266 268 270 271
263 261 259 258 257 258 259 261 261 261 261 262 260 260 260 261 262 262 264 266 265 265 265 264 264 264 264 264 264 264 264 264 264 265 266 266 265 265 266 266 265 266 268 270
262 260 260 259 258 259 259 260 261 262 263 263 260 259 260 260 261 262 262 263 262 262 262 263 264 265 263 263 264 265 265 265 266 267 267 266 265 266 267 266 267 270 271 271
264 262 261 260 258 258 259 261 262 262 262 260 259 260 259 258 261 261 260 261 261 261 261 262 263 265 265 265 265 264 265 266 267 268 268 266 265 266 267 267 269 271 272 271
262 261 260 259 259 259 260 261 263 263 262 260 258 258 260 260 261 260 260 261 263 262 261 261 262 263 264 265 265 267 267 267 268 270 270 268 266 266 268 269 270 271 272 272
262 259 259 260 260 260 260 261 262 262 261 260 259 258 260 263 264 261 260 260 262 261 262 263 263 264 265 266 268 269 269 269 270 269 269 269 268 268 269 269 271 273 273 271
Height
5809 5809 5810 5810 5809 5808 5807 5806 5806 5804 5803 5801 5799 5797 5796 5795 5795 5793 5793 5793 5793 5792 5793 5793 5794 5794 5794 5794 5794 5795 5795 5795 5795 5795 5795 5795 5794 5794 5793 5793 5792 5792 5791 5791
5804 5804 5804 5803 5804 5803 5802 5801 5800 5799 5799 5796 5794 5793 5792 5791 5790 5790 5790 5790 5790 5789 5789 5790 5790 5790 5790 5790 5790 5791 5791 5791 5791 5791 5791 5791 5791 5791 5790 5789 5789 5788 5787 5787
5798 5799 5797 5798 5798 5797 5796 5795 5794 5793 5793 5791 5790 5789 5787 5786 5786 5786 5785 5786 5786 5786 5786 5786 5786 5785 5785 5786 5786 5786 5787 5787 5787 5787 5787 5788 5787 5787 5786 5786 5785 5784 5784 5783
5791 5792 5791 5794 5792 5791 5791 5789 5788 5787 5787 5786 5785 5784 5782 5782 5781 5780 5781 5781 5781 5781 5781 5782 5781 5781 5781 5781 5781 5782 5782 5783 5783 5783 5784 5784 5784 5783 5783 5782 5781 5781 5780 5779
5785 5785 5785 5786 5786 5785 5784 5783 5782 5781 5780 5781 5780 5779 5778 5777 5777 5776 5776 5776 5776 5776 5776 5777 5777 5777 5777 5777 5777 5777 5778 5779 5779 5779 5780 5780 5780 5780 5779 5778 5777 5777 5776 5776
5778 5778 5778 5780 5779 5778 5779 5777 5776 5775 5775 5775 5774 5773 5773 5772 5771 5770 5770 5771 5771 5771 5771 5772 5772 5773 5773 5773 5773 5773 5773 5774 5774 5775 5775 5776 5776 5776 5775 5774 5773 5773 5772 5772
5770 5770 5770 5772 5772 5772 5773 5771 5770 5769 5769 5768 5768 5767 5767 5766 5766 5765 5765 5765 5765 5766 5766 5767 5768 5768 5769 5769 5769 5768 5769 5769 5770 5770 5771 5771 5771 5771 5771 5770 5770 5769 5768 5768
5762 5763 5765 5765 5764 5765 5764 5763 5762 5762 5762 5762 5761 5761 5761 5760 5760 5760 5760 5760 5760 5761 5762 5762 5763 5763 5764 5764 5764 5764 5764 5765 5765 5766 5766 5766 5767 5767 5766 5766 5766 5765 5765 5764
5755 5756 5756 5756 5756 5755 5755 5755 5755 5755 5755 5755 5755 5755 5755 5755 5754 5754 5754 5755 5755 5756 5756 5757 5758 5758 5759 5759 5759 5759 5760 5760 5760 5761 5761 5761 5762 5762 5762 5761 5761 5761 5761 5760
5746 5746 5746 5747 5747 5747 5747 5747 5747 5747 5747 5747 5748 5748 5748 5748 5748 5748 5748 5749 5750 5750 5751 5752 5752 5753 5753 5754 5754 5755 5755 5756 5756 5756 5757 5757 5756 5757 5757 5756 5756 5756 5756 5756
5736 5737 5737 5738 5738 5738 5739 5739 5739 5739 5739 5739 5740 5740 5740 5741 5741 5741 5742 5743 5743 5744 5745 5746 5746 5747 5747 5748 5749 5749 5750 5750 5751 5751 5751 5751 5751 5751 5751 5751 5751 5751 5751 5751
5726 5727 5727 5727 5728 5728 5729 5730 5730 5730 5731 5731 5732 5732 5733 5733 5734 5734 5735 5736 5737 5737 5738 5739 5740 5741 5741 5742 5743 5743 5744 5744 5745 5745 5746 5746 5746 5746 5746 5746 5746 5746 5746 5745
5717 5717 5718 5718 5718 5718 5719 5720 5721 5722 5722 5723 5724 5724 5725 5726 5726 5727 5728 5729 5730 5731 5732 5732 5733 5734 5735 5736 5736 5737 5737 5738 5738 5739 5739 5739 5740 5740 5740 5740 5740 5740 5740 5740
5708 5708 5709 5709 5709 5709 5710 5711 5712 5713 5714 5714 5715 5716 5717 5717 5718 5719 5720 5721 5722 5723 5724 5725 5726 5727 5728 5729 5730 5730 5731 5731 5732 5732 5732 5733 5733 5733 5733 5733 5733 5733 5733 5733
5699 5699 5700 5700 5700 5701 5702 5702 5703 5704 5705 5706 5707 5708 5709 5710 5711 5712 5713 5714 5715 5716 5717 5718 5719 5720 5721 5722 5723 5723 5724 5724 5725 5725 5726 5726 5726 5726 5726 5726 5726 5726 5727 5727
5690 5691 5691 5692 5692 5693 5693 5694 5694 5696 5697 5698 5699 5700 5702 5703 5704 5704 5706 5707 5708 5709 5709 5711 5712 5713 5714 5715 5715 5716 5717 5717 5718 5718 5719 5719 5719 5719 5719 5719 5719 5719 5720 5720
5681 5682 5683 5683 5684 5684 5685 5686 5687 5688 5689 5690 5691 5693 5694 5695 5696 5698 5699 5700 5700 5701 5702 5703 5704 5705 5706 5707 5708 5708 5709 5710 5710 5711 5711 5711 5711 5711 5712 5712 5712 5712 5712 5712
5672 5673 5675 5675 5676 5677 5678 5678 5679 5680 5681 5682 5684 5685 5687 5688 5689 5691 5691 5692 5692 5693 5694 5695 5697 5697 5698 5699 5700 5701 5701 5702 5702 5703 5703 5704 5704 5704 5704 5705 5705 5705 5705 5705
5664 5666 5666 5667 5668 5669 5670 5671 5672 5673 5674 5676 5677 5678 5679 5681 5682 5683 5684 5685 5685 5686 5687 5688 5689 5689 5690 5691 5692 5693 5693 5694 5694 5695 5696 5696 5696 5696 5696 5697 5697 5697 5698 5698
5657 5658 5659 5660 5661 5662 5663 5664 5665 5667 5668 5669 5670 5671 5672 5673 5674 5675 5676 5677 5678 5678 5679 5680 5681 5682 5682 5683 5684 5684 5685 5685 5686 5687 5688 5688 5688 5689 5689 5689 5689 5690 5690 5690
5650 5651 5652 5653 5654 5655 5656 5657 5658 5660 5661 5662 5663 5664 5665 5666 5667 5668 5669 5670 5670 5671 5671 5672 5673 5674 5675 5676 5676 5676 5677 5678 5678 5679 5679 5680 5680 5681 5681 5681 5682 5682 5682 5682
5643 5644 5645 5646 5647 5648 5649 5650 5651 5652 5653 5654 5655 5656 5657 5658 5659 5660 5661 5662 5663 5663 5664 5664 5665 5666 5667 5667 5668 5669 5669 5670 5671 5671 5671 5672 5672 5673 5673 5673 5673 5674 5674 5674
5637 5637 5638 5639 5641 5642 5643 5644 5645 5645 5646 5647 5648 5649 5650 5651 5652 5653 5654 5654 5655 5656 5657 5657 5658 5659 5659 5659 5660 5661 5662 5662 5663 5663 5664 5664 5664 5665 5665 5665 5665 5666 5666 5666
5630 5631 5632 5633 5634 5635 5636 5637 5638 5639 5639 5640 5641 5642 5643 5644 5645 5645 5646 5647 5648 5649 5649 5650 5651 5651 5652 5652 5653 5653 5654 5654 5655 5655 5656 5656 5656 5657 5657 5657 5657 5658 5658 5658
5624 5625 5626 5627 5628 5629 5630 5631 5631 5632 5632 5633 5634 5635 5635 5636 5637 5638 5639 5640 5640 5641 5642 5643 5644 5644 5645 5645 5645 5646 5646 5647 5647 5647 5647 5648 5648 5649 5649 5649 5649 5649 5649 5649
5618 5619 5620 5621 5622 5623 5623 5624 5625 5625 5626 5626 5627 5628 5629 5629 5630 5631 5632 5633 5634 5634 5635 5636 5636 5637 5637 5638 5638 5638 5639 5639 5639 5639 5639 5639 5639 5640 5640 5640 5640 5640 5640 5640
5612 5613 5614 5614 5615 5616 5617 5618 5618 5619 5619 5620 5620 5621 5622 5623 5623 5624 5625 5626 5626 5627 5628 5628 5629 5629 5630 5630 5630 5630 5630 5631 5631 5631 5631 5631 5631 5631 5631 5631 5632 5632 5631 5631